ARIANE 44LP DEB, 27661

Orbit data source: Space-Track

ARIANE 44LP DEB, 27661 is space debris in HEO originally from a launch on Sat, 02 Mar 1991 UTC launched from the French Guiana (FRGUI). Debris objects in space refer to the collection of defunct objects orbiting the Earth. Examples of debris include non-operational satellites, rocket bodies, and fragments generated from explosions, collisions, or faulty payload assembly.

Loading next visibility...
Identifier
27661, 1991-015M
Orbit
HEO
Country
Flag of FRFR
Related business
Manufacturer
Unknown
Mission
Spacecraft
Bus & Motor
Unknown
Mass
Unknown
Launch date (UTC)
1991-03-02 (35 years ago)
Launch vehicle
Unknown
Launch site
French Guiana (FRGUI)
Object type
Payload
Rocket body
Debris
Shape & HBR
Unknown shape, 0.3 m
Radar Cross Section
Medium (>0.1 m² and <1 m²)

Expand to show TLE details & history
Last TLE update: 9 months ago

TLE from 9 months ago
0 ARIANE 44LP DEB
1 27661U 91015M   25083.48049146  .00000976  00000-0  16863-2 0  9990
2 27661   5.4124 151.6997 6709613  40.0308 353.7531  2.95097831240552
Epoch: 2025-03-24T11:31Z
TLE epoch observation values (Epoch: 2025-03-24T11:31:54.462Z)
Latitude
0.00001°
Longitude
156.72989°
Altitude
1,054.968 km
Speed
9.371 km/s
True Right ascension
10h 07m 36s
True Declination
0° 00' 00"
Sunlit
Object was in full shadow at epoch
Visualization orbit readout
Latitude
Unknown
Longitude
Unknown
Altitude
Unknown
Speed
Unknown
Apparent Right ascension
Unknown
Apparent Declination
Unknown
Sunlit
N/A
Visualization observer readout
Local Sidereal Time
05:23:40
Azimuth
Unknown
Elevation
Unknown
Doppler factor
Unknown
Orbital elements
Apogee altitude
27,938.204 km
Perigee altitude
379.293 km
Semi-major axis
20,536.885 km
Eccentricity
0.67096
Inclination
5.4124°
RAAN
151.6997°
Arg. of periapsis
40.0308°
True anomaly
320.00103°
Mean anomaly
353.7531°
Eccentric anomaly
341.651°
Mean motion
0.73746 °/min
Orbital period
488.16 mins
BSTAR
0.0016863
Loading maneuver chart data...
Computing Atmospheric mass density...

Documentation

Showing up to 5 results
|